Location: Argonnex
(45.9500°N, 6.1333°E)
Time: 04:46:25
(UTC+00:00)

Cosmos 2266 Rocket - Pass Details

Date: 13 August 2024
Orbit: 933 x 1008 km, 82.9° (Epoch: 08 September)

Event Time Altitude Azimuth Distance (km) Brightness Sun altitude
Rises 01:05:45 0° 350° (N) 3,601 7.8 -26.5°
Reaches altitude 10° 01:08:13 10° 350° (N) 2,654 7.0 -26.3°
Maximum altitude 01:14:17 83° 264° (W) 952 3.8 -25.9°
Enters shadow 01:15:15 64° 189° (S) 1,034 3.8 -25.8°
